Regional Weather Roundup
Issued by NWS

Home | Current Version | Previous Version | Text Only | Print | Product List | Glossary On
Versions: 1 2 3 4 5 6 7 8 9 10 11 12 13 14 15 16 17 18 19 20 21 22 23 24 25 26 27 28 29 30 31 32 33 34 35 36 37 38 39 40 41 42 43 44 45 46 47 48 49 50
000
ASUS43 KTOP 272008
RWRKS

WEATHER ROUNDUP FOR KANSAS
NATIONAL WEATHER SERVICE GOODLAND KS
300 PM CDT SUN MAY 27 2018

NOTE:  "FAIR" INDICATES FEW OR NO CLOUDS BELOW 12,000 FEET WITH NO
SIGNIFICANT WEATHER AND/OR OBSTRUCTIONS TO VISIBILITY.

KSZ001>006-013>018-027>032-041>047-272100-
NORTHWEST KANSAS

CITY           SKY/WX    TMP DP  RH WIND       PRES   REMARKS
GOODLAND       MOSUNNY   87  62  43 SE23G36   29.83F
HAYS           SUNNY     94  56  27 SE22G30   29.83F
HILL CITY      MOSUNNY   90  57  32 SE16G26   29.83F
RUSSELL        PTSUNNY   94  54  25 S22       29.84F
$$

KSZ061>065-074>080-084>089-272100-
SOUTHWEST KANSAS

CITY           SKY/WX    TMP DP  RH WIND       PRES   REMARKS
DODGE CITY     SUNNY     95  63  34 SE25G35   29.85F HX  96
ELKHART        MOSUNNY   95  59  30 S24G31    29.84S
GARDEN CITY    SUNNY     94  60  32 S21G32    29.83F
GREAT BEND     SUNNY     93  58  30 SE21G26   29.85F
LIBERAL        SUNNY     96  62  32 SE22G28   29.83F HX  97
PRATT          SUNNY     91  59  34 SE14G24   29.86F
$$

KSZ066>073-081>083-090>101-272100-
SOUTHEAST KANSAS

CITY           SKY/WX    TMP DP  RH WIND       PRES   REMARKS
CHANUTE        MOSUNNY   87  73  62 S6        29.90F
COFFEYVILLE    CLOUDY    89  69  51 CALM      29.88F
HUTCHINSON     SUNNY     95  60  31 S18G24    29.86F HX  95
MEDICINE LODGE   N/A     92  62  36 SE13G24   29.83F
NEWTON         PTSUNNY   93  62  35 S16       29.90S
PARSONS        CLOUDY    88  72  58 VRB5      29.91F
WICHITA INTL   PTSUNNY   94  61  33 S16G25    29.87F
WICHITA JABRA  PTSUNNY   89  61  38 S14       29.88S
WICHITA MCCONL MOSUNNY   93  59  31 S13       29.88
WINFIELD       PTSUNNY   88  68  51 SE10      29.89F
$$

KSZ007>012-019>026-033>040-048>060-102>105-272100-
NORTHEAST KANSAS

CITY           SKY/WX    TMP DP  RH WIND       PRES   REMARKS
CONCORDIA      MOSUNNY   96  59  29 S14G26    29.86F HX  95
EMPORIA        CLOUDY    88  68  51 S12       29.90S
LAWRENCE       CLOUDY    94  70  45 SW9       29.88F HX 100
MANHATTAN      CLOUDY    97  60  29 S13G18    29.86F HX  97
OLATHE IND     MOSUNNY   92  69  47 S10       29.90F HX  97
OLATHE EXE     SUNNY     89  70  53 S6        29.90F
SALINA         MOSUNNY   98  58  26 S15G28    29.85F HX  97
TOPEKA BILLARD CLOUDY    94  66  39 VRB7      29.87F HX  97
TOPEKA FORBES  CLOUDY    95  67  39 S12       29.89F HX  99
$$




USA.gov is the U.S. government's official web portal to all federal, state and local government web resources and services.